Regional Weather Roundup
Issued by NWS

Home | Current Version | Previous Version | Text Only | Print | Product List | Glossary Off
Versions: 1 2 3 4 5 6 7 8 9 10 11 12 13 14 15 16 17 18 19 20 21 22 23 24 25 26 27 28 29 30 31 32 33 34 35 36 37 38 39 40 41 42 43 44 45 46 47 48 49 50

000
ASUS43 KLMK 252310
RWRKY
KENTUCKY REGIONAL WEATHER ROUNDUP
NATIONAL WEATHER SERVICE LOUISVILLE KY
700 PM EDT WED MAY 25 2016

NOTE "FAIR" INDICATES FEW OR NO CLOUDS BELOW 12,000 FEET
WITH NO SIGNIFICANT WEATHER AND/OR OBSTRUCTIONS TO VISIBILITY.

KYZ001>023-026-027-061>063-070>075-260000-
WESTERN AND SOUTH CENTRAL KENTUCKY

CITY           SKY/WX    TMP DP  RH WIND       PRES   REMARKS
PADUCAH        CLOUDY    72  67  84 SE7       30.01R
HENDERSON      CLOUDY    72  64  78 S12G17    29.99F
OWENSBORO      LGT RAIN  70  67  90 S14       30.02F
HOPKINSVILLE   TSTM      68  68 100 SE15G23   30.08F
BOWLING GREEN  LGT RAIN  68  66  93 S8        30.12S
GLASGOW        RAIN      66  66 100 S3        30.13F
$$

KYZ024-025-028>034-038-045-046-053-260000-
NORTH CENTRAL KENTUCKY

CITY           SKY/WX    TMP DP  RH WIND       PRES   REMARKS
LOUISVILLE/SDF CLOUDY    78  62  57 SW12      30.05F
LOUISVILLE/LOU LGT RAIN  78  64  61 S13G22    30.06S
FORT KNOX      CLOUDY    75  62  64 S10       30.06F
$$

KYZ035>037-039>044-047>052-055>060-089>105-260000-
NORTHEAST KENTUCKY

CITY           SKY/WX    TMP DP  RH WIND       PRES   REMARKS
LEXINGTON      PTSUNNY   78  63  59 SW9       30.10F
COVINGTON      MOSUNNY   79  62  56 S13       30.04F
FRANKFORT      PTSUNNY   80  62  54 SW12      30.07F
$$

KYZ054-064>069-076>088-106>120-260000-
SOUTHEAST KENTUCKY

CITY           SKY/WX    TMP DP  RH WIND       PRES   REMARKS
JACKSON        CLOUDY    74  61  63 CALM      30.15F
LONDON         CLOUDY    76  61  59 SW6       30.15F
SOMERSET       PTSUNNY   75  59  57 SW6       30.15F
MIDDLESBORO    CLOUDY    78  59  52 CALM      30.17S
MONTICELLO     LGT RAIN  77  64  64 W13       30.16F
$$




USA.gov is the U.S. government's official web portal to all federal, state and local government web resources and services.